Weather History for Port Huron, MI

Change the Weather History Date:

Thursday, May 23, 2013

  Actual Average (KMTC) Record (KMTC)
Temperature  
Mean Temperature 52 °F -  
Max Temperature 64 °F 68 °F 88 °F (1964)
Min Temperature 39 °F 47 °F 30 °F (1963)
Degree Days  
Heating Degree Days 14    
Growing Degree Days 2 (Base 50)    
Moisture  
Dew Point 48 °F    
Average Humidity 94    
Maximum Humidity 100    
Minimum Humidity 87    
Precipitation  
Precipitation 0.00 in - - ()
Sea Level Pressure  
Sea Level Pressure 29.87 in    
Wind  
Wind Speed 7 mph (NNW)    
Max Wind Speed 17 mph    
Max Gust Speed 31 mph    
Visibility 10 miles    
Events Rain    
Averages and records for this station are not official NWS values.
T = Trace of Precipitation, MM = Missing Value Source: NWS Daily Summary

Daily Weather History Graph

Daily Weather History Graph

Search for Another Location

Airport:

Trip Planner

Search our weather history database for the weather conditions in past years. The results will help you decide how hot, cold, wet, or windy it might be!

Date:

Astronomy

May. 23, 2013 Rise Set
Actual Time 5:59 AM EDT 8:54 PM EDT
Civil Twilight 5:26 AM EDT 9:28 PM EDT
Nautical Twilight 4:43 AM EDT 10:10 PM EDT
Astronomical Twilight 3:54 AM EDT 11:00 PM EDT
Moon 7:24 PM EDT (5/23) 4:46 AM EDT (5/23)
Length of Visible Light 16h 02m
Length of Day
14h 55m
Waxing Gibbous, 97% of the Moon is Illuminated
May 23
Waxing Gibbous
May 25
Full
May 31
Last Quarter
Jun 8
New
Jun 16
First Quarter

Hourly Weather History & Observations

Time (EDT) Temp. Windchill Dew Point Humidity Pressure Visibility Wind Dir Wind Speed Gust Speed Precip Events Conditions
12:17 AM 64.4 °F - 60.8 °F 88% 29.67 in 10.0 mi SW 5.8 mph - N/A   Scattered Clouds
12:37 AM 64.4 °F - 60.8 °F 88% 29.68 in 10.0 mi SSW 4.6 mph - N/A   Mostly Cloudy
12:57 AM 64.4 °F - 60.8 °F 88% 29.68 in 10.0 mi SW 4.6 mph - N/A   Overcast
1:17 AM 64.4 °F - 60.8 °F 88% 29.68 in 10.0 mi SW 3.5 mph - N/A   Mostly Cloudy
1:37 AM 64.4 °F - 60.8 °F 88% 29.69 in 10.0 mi SW 3.5 mph - N/A   Mostly Cloudy
1:57 AM 64.4 °F - 60.8 °F 88% 29.69 in 10.0 mi Calm Calm - N/A   Overcast
2:17 AM 62.6 °F - 60.8 °F 94% 29.69 in 10.0 mi SW 4.6 mph - N/A   Mostly Cloudy
2:37 AM 62.6 °F - 60.8 °F 94% 29.69 in 10.0 mi Calm Calm - N/A   Scattered Clouds
2:57 AM 60.8 °F - 59.0 °F 94% 29.69 in 10.0 mi Calm Calm - N/A   Clear
3:17 AM 60.8 °F - 59.0 °F 94% 29.69 in 10.0 mi Calm Calm - N/A   Clear
3:37 AM 60.8 °F - 59.0 °F 94% 29.69 in 10.0 mi Calm Calm - N/A   Clear
3:57 AM 60.8 °F - 59.0 °F 94% 29.69 in 10.0 mi SW 3.5 mph - N/A   Scattered Clouds
4:17 AM 60.8 °F - 59.0 °F 94% 29.70 in 10.0 mi SW 4.6 mph - N/A   Overcast
4:37 AM 60.8 °F - 59.0 °F 94% 29.70 in 10.0 mi WSW 4.6 mph - N/A   Mostly Cloudy
4:57 AM 60.8 °F - 59.0 °F 94% 29.71 in 10.0 mi SW 4.6 mph - N/A   Scattered Clouds
5:17 AM 59.0 °F - 59.0 °F 100% 29.71 in 10.0 mi SW 3.5 mph - N/A   Scattered Clouds
5:37 AM 59.0 °F - 57.2 °F 94% 29.71 in 10.0 mi Calm Calm - N/A   Mostly Cloudy
5:57 AM 59.0 °F - 59.0 °F 100% 29.72 in 10.0 mi SW 3.5 mph - N/A   Overcast
6:17 AM 59.0 °F - 59.0 °F 100% 29.72 in 10.0 mi SSW 3.5 mph - N/A   Overcast
6:37 AM 60.8 °F - 59.0 °F 94% 29.73 in 10.0 mi SW 3.5 mph - N/A   Scattered Clouds
6:57 AM 60.8 °F - 59.0 °F 94% 29.73 in 10.0 mi Calm Calm - N/A   Mostly Cloudy
7:17 AM 60.8 °F - 59.0 °F 94% 29.73 in 10.0 mi Calm Calm - N/A   Overcast
7:37 AM 59.0 °F - 57.2 °F 94% 29.74 in 10.0 mi NW 8.1 mph - N/A   Overcast
7:57 AM 57.2 °F - 57.2 °F 100% 29.75 in 10.0 mi NW 9.2 mph - N/A   Overcast
8:17 AM 57.2 °F - 53.6 °F 88% 29.76 in 10.0 mi NW 6.9 mph - N/A   Overcast
8:37 AM 57.2 °F - 53.6 °F 88% 29.77 in 10.0 mi NW 6.9 mph - N/A   Overcast
8:57 AM 55.4 °F - 53.6 °F 94% 29.78 in 10.0 mi NNW 5.8 mph - N/A   Overcast
9:17 AM 55.4 °F - 51.8 °F 88% 29.79 in 10.0 mi NNW 8.1 mph - N/A   Overcast
9:37 AM 55.4 °F - 53.6 °F 94% 29.79 in 10.0 mi North 5.8 mph - N/A   Overcast
9:57 AM 55.4 °F - 51.8 °F 88% 29.80 in 10.0 mi North 6.9 mph - N/A   Overcast
10:17 AM 50.0 °F - 50.0 °F 100% 29.82 in 4.0 mi North 10.4 mph - N/A   Overcast
10:37 AM 48.2 °F - 48.2 °F 100% 29.83 in 10.0 mi NNE 11.5 mph 16.1 mph N/A   Overcast
10:57 AM 48.2 °F - 46.4 °F 93% 29.85 in 10.0 mi NNE 9.2 mph 16.1 mph N/A   Overcast
11:17 AM 46.4 °F 41.1 °F 44.6 °F 93% 29.85 in 10.0 mi North 11.5 mph 16.1 mph N/A   Overcast
11:37 AM 46.4 °F 41.1 °F 44.6 °F 93% 29.86 in 10.0 mi NNE 11.5 mph 19.6 mph N/A   Overcast
11:57 AM 46.4 °F 41.5 °F 44.6 °F 93% 29.87 in 7.0 mi North 10.4 mph 24.2 mph N/A   Drizzle
12:17 PM 46.4 °F 40.7 °F 44.6 °F 93% 29.88 in 10.0 mi North 12.7 mph 20.7 mph N/A   Overcast
12:37 PM 46.4 °F 40.1 °F 42.8 °F 87% 29.88 in 10.0 mi North 15.0 mph 19.6 mph N/A   Overcast
12:57 PM 46.4 °F 40.1 °F 42.8 °F 87% 29.89 in 10.0 mi NNW 15.0 mph 23.0 mph N/A   Overcast
1:17 PM 44.6 °F 38.8 °F 41.0 °F 87% 29.90 in 10.0 mi North 11.5 mph 25.3 mph N/A   Overcast
1:37 PM 44.6 °F 37.4 °F 41.0 °F 87% 29.89 in 10.0 mi North 16.1 mph 25.3 mph N/A   Overcast
1:57 PM 44.6 °F 37.8 °F 41.0 °F 87% 29.90 in 10.0 mi North 15.0 mph 25.3 mph N/A   Overcast
2:17 PM 42.8 °F 34.8 °F 41.0 °F 93% 29.91 in 10.0 mi North 17.3 mph 26.5 mph N/A   Drizzle
2:37 PM 42.8 °F 35.4 °F 41.0 °F 93% 29.91 in 7.0 mi North 15.0 mph 26.5 mph N/A Rain Light Rain
2:57 PM 42.8 °F 36.6 °F 41.0 °F 93% 29.92 in 7.0 mi North 11.5 mph 23.0 mph N/A Rain Light Rain
3:17 PM 41.0 °F 33.1 °F 41.0 °F 100% 29.92 in 5.0 mi North 15.0 mph 25.3 mph N/A Rain Rain
3:37 PM 41.0 °F 32.5 °F 41.0 °F 100% 29.92 in 7.0 mi North 17.3 mph 27.6 mph N/A Rain Light Rain
3:57 PM 41.0 °F 33.1 °F 41.0 °F 100% 29.94 in 10.0 mi North 15.0 mph 25.3 mph N/A Rain Light Rain
4:17 PM 41.0 °F 32.5 °F 41.0 °F 100% 29.94 in 10.0 mi North 17.3 mph 24.2 mph N/A Rain Light Rain
4:37 PM 41.0 °F 33.1 °F 41.0 °F 100% 29.95 in 10.0 mi North 15.0 mph 31.1 mph N/A Rain Rain
4:57 PM 41.0 °F 32.8 °F 41.0 °F 100% 29.96 in 10.0 mi North 16.1 mph 29.9 mph N/A Rain Rain
5:17 PM 41.0 °F 33.9 °F 41.0 °F 100% 29.97 in 10.0 mi North 12.7 mph 31.1 mph N/A   Light Drizzle
5:37 PM 41.0 °F 34.3 °F 39.2 °F 93% 29.98 in 10.0 mi North 11.5 mph 26.5 mph N/A   Drizzle
5:57 PM 41.0 °F 33.1 °F 39.2 °F 93% 29.99 in 10.0 mi North 15.0 mph 25.3 mph N/A   Drizzle
6:17 PM 41.0 °F 32.8 °F 39.2 °F 93% 29.99 in 10.0 mi North 16.1 mph 23.0 mph N/A Rain Light Rain
6:37 PM 41.0 °F 34.7 °F 39.2 °F 93% 30.00 in 10.0 mi North 10.4 mph 20.7 mph N/A Rain Light Rain
6:57 PM 41.0 °F 34.7 °F 39.2 °F 93% 30.01 in 10.0 mi North 10.4 mph 20.7 mph N/A   Drizzle
7:17 PM 39.2 °F 33.0 °F 39.2 °F 100% 30.02 in 10.0 mi North 9.2 mph 17.3 mph N/A   Drizzle
7:37 PM 39.2 °F 32.0 °F 39.2 °F 100% 30.04 in 10.0 mi North 11.5 mph 24.2 mph N/A   Light Drizzle
7:57 PM 41.0 °F 35.2 °F 39.2 °F 93% 30.04 in 10.0 mi North 9.2 mph 19.6 mph N/A   Overcast
8:17 PM 41.0 °F 34.3 °F 39.2 °F 93% 30.05 in 10.0 mi North 11.5 mph 19.6 mph N/A Rain Rain
8:37 PM 41.0 °F 35.8 °F 39.2 °F 93% 30.06 in 10.0 mi North 8.1 mph 17.3 mph N/A   Drizzle
8:57 PM 41.0 °F 34.7 °F 39.2 °F 93% 30.07 in 10.0 mi North 10.4 mph 16.1 mph N/A Rain Rain
9:17 PM 41.0 °F 35.8 °F 37.4 °F 87% 30.07 in 10.0 mi North 8.1 mph - N/A Rain Light Rain
9:37 PM 41.0 °F 37.1 °F 39.2 °F 93% 30.09 in 10.0 mi NNW 5.8 mph - N/A   Drizzle
9:57 PM 41.0 °F 38.0 °F 39.2 °F 93% 30.09 in 10.0 mi NNW 4.6 mph - N/A   Overcast
10:17 PM 41.0 °F 36.4 °F 39.2 °F 93% 30.11 in 10.0 mi North 6.9 mph - N/A   Overcast
10:37 PM 41.0 °F 38.0 °F 39.2 °F 93% 30.11 in 10.0 mi North 4.6 mph - N/A   Mostly Cloudy
10:57 PM 39.2 °F 37.0 °F 39.2 °F 100% 30.12 in 10.0 mi North 3.5 mph - N/A   Clear
11:17 PM 39.2 °F 37.0 °F 37.4 °F 93% 30.12 in 10.0 mi NNW 3.5 mph - N/A   Clear
11:37 PM 39.2 °F 35.0 °F 37.4 °F 93% 30.13 in 10.0 mi NNW 5.8 mph - N/A   Clear
11:57 PM 39.2 °F 35.9 °F 37.4 °F 93% 30.13 in 10.0 mi NNW 4.6 mph - N/A   Clear